Gulf Shores - Orange Beach - Perdido Key Weather Center

Moon Phase Calendar



Online Cameras

 


      

Current Conditions in Orange Beach
5/9/2021 7:38:41 PM

75°F
Feels Like 76
Clear
Humidity
73%
Pressure
29.97"
Wind
3.4 mph (S)
Dew Point
66°F
UV Index
0/10 (Low)
Visibility
6 mi

Hourly Forecast

Date & Time Sun, May 9
7:00 PM
Sun, May 9
8:00 PM
Sun, May 9
9:00 PM
Sun, May 9
10:00 PM
Sun, May 9
11:00 PM
Mon, May 10
12:00 AM
Mon, May 10
1:00 AM
Mon, May 10
2:00 AM
Mon, May 10
3:00 AM
Mon, May 10
4:00 AM
Mon, May 10
5:00 AM
Mon, May 10
6:00 AM
Mon, May 10
7:00 AM
Mon, May 10
8:00 AM
Mon, May 10
9:00 AM
Mon, May 10
10:00 AM
Mon, May 10
11:00 AM
Mon, May 10
12:00 PM
Mon, May 10
1:00 PM
Mon, May 10
2:00 PM
Mon, May 10
3:00 PM
Mon, May 10
4:00 PM
Mon, May 10
5:00 PM
Mon, May 10
6:00 PM
Mon, May 10
7:00 PM
Mon, May 10
8:00 PM
Mon, May 10
9:00 PM
Mon, May 10
10:00 PM
Mon, May 10
11:00 PM
Tue, May 11
12:00 AM
Tue, May 11
1:00 AM
Tue, May 11
2:00 AM
Tue, May 11
3:00 AM
Tue, May 11
4:00 AM
Tue, May 11
5:00 AM
Tue, May 11
6:00 AM
Tue, May 11
7:00 AM
Tue, May 11
8:00 AM
Tue, May 11
9:00 AM
Tue, May 11
10:00 AM
Tue, May 11
11:00 AM
Tue, May 11
12:00 PM
Tue, May 11
1:00 PM
Tue, May 11
2:00 PM
Tue, May 11
3:00 PM
Tue, May 11
4:00 PM
Tue, May 11
5:00 PM
Tue, May 11
6:00 PM
Condition
Clear

Clear

Clouds

Clouds

Clouds

Clouds

Clouds

Clouds

Clouds

Clouds

Rain

Rain

Rain

Rain

Rain

Rain

Rain

Rain

Rain

Rain

Rain

Rain

Rain

Rain

Clouds

Rain

Rain

Rain

Rain

Clouds

Clouds

Clear

Clouds

Clouds

Clouds

Clouds

Clouds

Clouds

Clouds

Clouds

Clouds

Clouds

Rain

Clouds

Rain

Rain

Rain

Rain
Temperature 75°F75°F75°F74°F74°F74°F73°F73°F74°F74°F74°F73°F73°F72°F72°F72°F72°F73°F75°F77°F77°F78°F77°F77°F76°F75°F75°F75°F74°F74°F74°F74°F74°F74°F74°F74°F74°F75°F76°F78°F79°F79°F79°F79°F79°F78°F78°F77°F
Feels Like 76°F76°F75°F75°F75°F75°F74°F75°F75°F75°F75°F74°F74°F73°F73°F73°F73°F74°F76°F78°F78°F79°F78°F78°F77°F76°F76°F76°F76°F76°F75°F75°F75°F75°F75°F75°F75°F76°F77°F79°F80°F79°F79°F79°F79°F79°F79°F78°F
Cloudiness 8%1%21%39%47%62%81%100%100%100%100%100%100%100%100%100%100%100%100%100%100%100%100%97%93%86%91%69%62%53%46%9%39%59%69%76%80%100%100%100%100%100%100%100%100%100%100%100%
Visibility 6 mi6 mi6 mi6 mi6 mi6 mi6 mi6 mi6 mi6 mi6 mi5 mi4 mi3 mi3 mi3 mi3 mi4 mi6 mi6 mi6 mi6 mi6 mi6 mi6 mi6 mi6 mi6 mi6 mi6 mi6 mi6 mi6 mi6 mi6 mi6 mi6 mi6 mi6 mi6 mi6 mi6 mi6 mi6 mi6 mi6 mi6 mi6 mi
Precipitation 0%0%0%0%0%0%0%0%0%10%34%63%65%85%85%85%89%100%100%100%100%100%100%100%80%90%85%91%80%79%75%17%7%10%6%2%0%2%3%3%16%33%53%76%95%95%92%92%
Humidity 75%73%75%77%79%83%88%89%89%88%88%90%89%90%90%90%90%87%83%79%80%76%78%80%82%84%85%85%86%87%88%89%90%90%90%91%90%89%85%80%76%74%75%75%76%78%79%82%
Dew Point 66°F66°F66°F67°F67°F68°F69°F70°F70°F70°F70°F69°F69°F69°F69°F69°F69°F69°F70°F70°F70°F70°F70°F70°F70°F70°F70°F70°F70°F70°F70°F71°F71°F71°F71°F71°F71°F71°F72°F71°F71°F70°F71°F71°F71°F71°F71°F71°F
Pressure 29.97"29.97"29.97"29.97"29.97"29.97"29.97"29.97"29.94"29.94"29.94"29.97"29.97"30"30"30"30"30"30"30"29.97"29.97"29.97"29.97"29.97"30"30"30"30"30"29.97"29.97"29.97"30"30"30"30.03"30.06"30.06"30.06"30.06"30.06"30.03"30.03"30.03"30"30"30"
Wind Speed 10.8 mph12.4 mph12.9 mph12.7 mph13.2 mph10.6 mph9.2 mph8.4 mph7.9 mph9.9 mph8.3 mph6 mph5.4 mph4 mph1.9 mph0.2 mph1.6 mph2.2 mph5.7 mph9.1 mph8.8 mph9.4 mph8.7 mph8.7 mph7.6 mph7.2 mph6.8 mph6.8 mph6.7 mph6.3 mph7.2 mph6.6 mph6.3 mph4.8 mph4.1 mph3 mph2.3 mph2.9 mph2 mph1.2 mph3.8 mph5.5 mph7.2 mph8 mph8.7 mph10 mph9.6 mph9.9 mph
Wind
Direction
173°
S
180°
S
188°
S
197°
SSW
204°
SSW
209°
SSW
210°
SSW
205°
SSW
191°
S
185°
S
193°
SSW
207°
SSW
197°
SSW
212°
SSW
228°
SW
355°
N
341°
NNW
236°
SW
221°
SW
227°
SW
233°
SW
235°
SW
223°
SW
222°
SW
219°
SW
222°
SW
219°
SW
216°
SW
219°
SW
219°
SW
219°
SW
228°
SW
233°
SW
248°
WSW
244°
WSW
264°
W
296°
WNW
324°
NW
26°
NNE
166°
SSE
187°
S
183°
S
181°
S
174°
S
182°
S
180°
S
181°
S
176°
S

Daily Forecast

Date High Low Precip. Humidity
Today
May 9

Clear
77 °F
70 °F
0%
70%
Monday
May 10

Rain
78 °F
72 °F
100%
87%
Tuesday
May 11

Rain
79 °F
74 °F
95%
75%
Wednesday
May 12

Rain
76 °F
69 °F
100%
78%
Thursday
May 13

Rain
71 °F
67 °F
97%
78%
Friday
May 14

Clear
75 °F
64 °F
0%
42%
Saturday
May 15

Clouds
73 °F
60 °F
0%
44%
Sunday
May 16

Clouds
77 °F
67 °F
0%
61%
Monday
May 17

Clear
77 °F
71 °F
0%
68%
Tuesday
May 18

Clouds
77 °F
72 °F
0%
66%
Wednesday
May 19

Clouds
77 °F
72 °F
0%
67%
Thursday
May 20

Clouds
79 °F
72 °F
2%
73%
Friday
May 21

Clouds
81 °F
74 °F
0%
59%
Saturday
May 22

Clouds
80 °F
75 °F
0%
70%
Sunday
May 23

Rain
83 °F
75 °F
20%
70%
Monday
May 24

Rain
83 °F
72 °F
61%
43%

Temperature 8-14 Day Outlook



Precipitation 8-14 Day Outlook




Quick Links
Gulf Shores - Orange Beach - Perdido Key News
Gulf Shores - Orange Beach - Perdido Key Photos
Gulf Shores - Orange Beach - Perdido Key Videos




About Us
Contact Us
Site Map
Search Site
Advertise With Us
   
GulfShores.USGulf.info
THE GULF SHORES - ORANGE BEACH - PERDIDO KEY WEBSITE

Copyright 2021, Coastal Town
Privacy    |    Legal